This is the latest recevied weather packets stored in our database for station/object W7MB. If no packets are shown the sender has not sent any weather packets the latest 10 day(s).
| Time | Temp. | Humidity | Pressure | Rain* | Wind** | Luminosity | Snow |
|---|---|---|---|---|---|---|---|
| 1777602603 | 18.89° C | 42% | 1017 hPa | 0 mm | - | - | - |
| 1777602243 | 19.44° C | 41% | 1017.1 hPa | 0 mm | - | - | - |
| 1777601883 | 20° C | 38% | 1017.1 hPa | 0 mm | - | - | - |
| 1777601523 | 20.56° C | 34% | 1017.1 hPa | 0 mm | - | - | - |
| 1777601163 | 21.11° C | 36% | 1017.1 hPa | 0 mm | - | - | - |
| 1777600804 | 21.67° C | 34% | 1017.2 hPa | 0 mm | - | - | - |
| 1777600443 | 21.67° C | 32% | 1017.2 hPa | 0 mm | - | - | - |
| 1777600083 | 21.67° C | 32% | 1017.3 hPa | 0 mm | - | - | - |
| 1777599723 | 21.67° C | 30% | 1017.3 hPa | 0 mm | - | - | - |
| 1777599363 | 21.67° C | 33% | 1017.4 hPa | 0 mm | - | - | - |
| 1777599003 | 21.67° C | 31% | 1017.4 hPa | 0 mm | - | - | - |
| 1777598643 | 22.22° C | 30% | 1017.4 hPa | 0 mm | - | - | - |
| 1777598283 | 22.22° C | 31% | 1017.5 hPa | 0 mm | - | - | - |
| 1777597924 | 21.67° C | 34% | 1017.5 hPa | 0 mm | - | - | - |
| 1777597563 | 22.22° C | 29% | 1017.6 hPa | 0 mm | - | - | - |
| 1777597204 | 22.22° C | 34% | 1017.6 hPa | 0 mm | - | - | - |
| 1777596844 | 22.22° C | 29% | 1017.7 hPa | 0 mm | - | - | - |
| 1777596483 | 22.22° C | 30% | 1017.7 hPa | 0 mm | - | - | - |
| 1777596123 | 22.22° C | 29% | 1017.7 hPa | 0 mm | - | - | - |
| 1777595763 | 22.78° C | 33% | 1017.8 hPa | 0 mm | - | - | - |
| 1777595403 | 22.78° C | 31% | 1017.8 hPa | 0 mm | - | - | - |
| 1777595043 | 23.33° C | 30% | 1017.9 hPa | 0 mm | - | - | - |
| 1777594683 | 23.33° C | 35% | 1017.9 hPa | 0 mm | - | - | - |
| 1777594324 | 23.33° C | 33% | 1017.9 hPa | 0 mm | - | - | - |
| 1777593963 | 23.33° C | 31% | 1018 hPa | 0 mm | - | - | - |
* Rain latest hour (hover to see other rain measurements)
** Current wind speed in m/s (hover to see current wind gust speed)